| time (UTC) | temp F | wind direction | speed knots | gust knots | rain 1hr in | rain 24hr in | rain mn in | humidity % | barometer mb |
| 20260505022010 | 62 | 234 | 2.6 | 7.0 | 0.00 | 0.00 | 0.00 | 49 | 1009.0 |
| 20260505021808 | 62 | 242 | 2.6 | 7.0 | 0.00 | 0.00 | 0.00 | 49 | 1009.0 |
| 20260505021608 | 62 | 228 | 1.7 | 7.0 | 0.00 | 0.00 | 0.00 | 49 | 1009.0 |
| 20260505021404 | 62 | 219 | 2.6 | 7.0 | 0.00 | 0.00 | 0.00 | 48 | 1009.0 |
| 20260505021156 | 63 | 241 | 2.6 | 7.8 | 0.00 | 0.00 | 0.00 | 48 | 1009.0 |
| 20260505020954 | 63 | 221 | 2.6 | 7.8 | 0.00 | 0.00 | 0.00 | 48 | 1008.9 |
| 20260505020749 | 63 | 219 | 3.5 | 7.8 | 0.00 | 0.00 | 0.00 | 48 | 1008.9 |
| 20260505020545 | 63 | 229 | 3.5 | 7.8 | 0.00 | 0.00 | 0.00 | 48 | 1008.9 |
| 20260505020346 | 63 | 234 | 3.5 | 7.8 | 0.00 | 0.00 | 0.00 | 47 | 1008.8 |
| 20260505020146 | 63 | 215 | 3.5 | 7.8 | 0.00 | 0.00 | 0.00 | 47 | 1008.8 |
| 20260505015940 | 63 | 229 | 3.5 | 7.8 | 0.00 | 0.00 | 0.00 | 47 | 1008.8 |
| 20260505015732 | 63 | 251 | 3.5 | 7.8 | 0.00 | 0.00 | 0.00 | 47 | 1008.8 |
| 20260505015531 | 63 | 225 | 3.5 | 7.8 | 0.00 | 0.00 | 0.00 | 47 | 1008.8 |
| 20260505015327 | 63 | 207 | 3.5 | 7.8 | 0.00 | 0.00 | 0.00 | 47 | 1008.8 |
| 20260505015128 | 63 | 240 | 3.5 | 7.0 | 0.00 | 0.00 | 0.00 | 47 | 1008.7 |
| 20260505014928 | 63 | 237 | 3.5 | 8.7 | 0.00 | 0.00 | 0.00 | 46 | 1008.7 |
| 20260505014729 | 63 | 214 | 2.6 | 8.7 | 0.00 | 0.00 | 0.00 | 47 | 1008.7 |
| 20260505014526 | 64 | 242 | 2.6 | 8.7 | 0.00 | 0.00 | 0.00 | 46 | 1008.6 |
| 20260505014316 | 64 | 240 | 3.5 | 8.7 | 0.00 | 0.00 | 0.00 | 46 | 1008.6 |
| 20260505014117 | 64 | 223 | 2.6 | 8.7 | 0.00 | 0.00 | 0.00 | 46 | 1008.6 |
| 20260505013914 | 64 | 227 | 3.5 | 9.6 | 0.00 | 0.00 | 0.00 | 46 | 1008.6 |
| 20260505013714 | 64 | 229 | 3.5 | 9.6 | 0.00 | 0.00 | 0.00 | 46 | 1008.5 |
| 20260505013503 | 64 | 230 | 3.5 | 9.6 | 0.00 | 0.00 | 0.00 | 46 | 1008.5 |
| 20260505013253 | 64 | 230 | 3.5 | 9.6 | 0.00 | 0.00 | 0.00 | 46 | 1008.4 |
| 20260505012936 | 64 | 223 | 3.5 | 9.6 | 0.00 | 0.00 | 0.00 | 45 | 1008.4 |
| 20260505012736 | 64 | 226 | 3.5 | 9.6 | 0.00 | 0.00 | 0.00 | 45 | 1008.3 |
| 20260505012535 | 64 | 220 | 3.5 | 9.6 | 0.00 | 0.00 | 0.00 | 45 | 1008.3 |
| 20260505012334 | 64 | 226 | 3.5 | 9.6 | 0.00 | 0.00 | 0.00 | 45 | 1008.2 |
| 20260505012135 | 64 | 223 | 2.6 | 9.6 | 0.00 | 0.00 | 0.00 | 45 | 1008.1 |
| 20260505011927 | 64 | 219 | 2.6 | 6.1 | 0.00 | 0.00 | 0.00 | 45 | 1008.2 |
| 20260505011725 | 65 | 232 | 3.5 | 6.1 | 0.00 | 0.00 | 0.00 | 45 | 1008.2 |
| 20260505011359 | 65 | 168 | 3.5 | 7.8 | 0.00 | 0.00 | 0.00 | 45 | 1008.1 |
| 20260505011155 | 65 | 221 | 3.5 | 7.8 | 0.00 | 0.00 | 0.00 | 44 | 1008.0 |
| 20260505010839 | 65 | 227 | 3.5 | 7.8 | 0.00 | 0.00 | 0.00 | 43 | 1007.9 |
| 20260505010515 | 65 | 234 | 3.5 | 12.2 | 0.00 | 0.00 | 0.00 | 43 | 1007.8 |
| 20260505010310 | 65 | 193 | 3.5 | 12.2 | 0.00 | 0.00 | 0.00 | 43 | 1007.7 |
| 20260505005901 | 65 | 225 | 4.3 | 12.2 | 0.00 | 0.00 | 0.00 | 42 | 1007.7 |
| 20260505005653 | 66 | 220 | 4.3 | 12.2 | 0.00 | 0.00 | 0.00 | 43 | 1007.7 |
| 20260505005454 | 66 | 244 | 4.3 | 12.2 | 0.00 | 0.00 | 0.00 | 42 | 1007.6 |
| 20260505005246 | 66 | 254 | 4.3 | 12.2 | 0.00 | 0.00 | 0.00 | 42 | 1007.6 |
| 20260505005039 | 65 | 169 | 3.5 | 12.2 | 0.00 | 0.00 | 0.00 | 42 | 1007.5 |
| 20260505004834 | 65 | 230 | 3.5 | 12.2 | 0.00 | 0.00 | 0.00 | 41 | 1007.4 |
| 20260505004511 | 65 | 227 | 2.6 | 7.8 | 0.00 | 0.00 | 0.00 | 41 | 1007.4 |
| 20260505004301 | 65 | 221 | 1.7 | 7.8 | 0.00 | 0.00 | 0.00 | 42 | 1007.4 |
| 20260505004057 | 65 | 241 | 0.9 | 7.8 | 0.00 | 0.00 | 0.00 | 40 | 1007.3 |
| 20260505003850 | 65 | 255 | 0.0 | 6.1 | 0.00 | 0.00 | 0.00 | 40 | 1007.2 |
| 20260505003646 | 65 | 239 | 0.0 | 1.7 | 0.00 | 0.00 | 0.00 | 41 | 1007.1 |
| 20260505003439 | 65 | 239 | 0.0 | 0.9 | 0.00 | 0.00 | 0.00 | 40 | 1007.0 |
| 20260505003234 | 65 | 239 | 0.0 | 0.0 | 0.00 | 0.00 | 0.00 | 40 | 1007.0 |
| 20260505003034 | 65 | 239 | 0.0 | 0.0 | 0.00 | 0.00 | 0.00 | 40 | 1006.9 |
| 20260505002718 | 65 | 239 | 0.0 | 0.0 | 0.00 | 0.00 | 0.00 | 40 | 1006.9 |
| 20260505002403 | 65 | 239 | 0.0 | 0.0 | 0.00 | 0.00 | 0.00 | 40 | 1006.8 |
| 20260505002155 | 66 | 239 | 0.0 | 1.7 | 0.00 | 0.00 | 0.00 | 40 | 1006.8 |
| 20260505001954 | 66 | 239 | 0.0 | 1.7 | 0.00 | 0.00 | 0.00 | 40 | 1006.7 |
| 20260505001755 | 66 | 239 | 0.9 | 1.7 | 0.00 | 0.00 | 0.00 | 40 | 1006.6 |
| 20260505001546 | 66 | 239 | 0.9 | 1.7 | 0.00 | 0.00 | 0.00 | 39 | 1006.6 |
| 20260505001342 | 66 | 239 | 0.9 | 1.7 | 0.00 | 0.00 | 0.00 | 39 | 1006.6 |
| 20260505001139 | 66 | 239 | 0.9 | 1.7 | 0.00 | 0.00 | 0.00 | 39 | 1006.5 |
| 20260505000933 | 66 | 239 | 0.9 | 1.7 | 0.00 | 0.00 | 0.00 | 38 | 1006.4 |
| 20260505000618 | 66 | 239 | 0.9 | 1.7 | 0.00 | 0.00 | 0.00 | 39 | 1006.4 |
| 20260505000420 | 66 | 239 | 0.9 | 1.7 | 0.00 | 0.00 | 0.00 | 39 | 1006.5 |
| 20260505000211 | 66 | 239 | 0.0 | 1.7 | 0.00 | 0.00 | 0.00 | 39 | 1006.4 |
| 20260505000009 | 66 | 239 | 0.0 | 1.7 | 0.00 | 0.00 | 0.00 | 39 | 1006.4 |
| 20260504235805 | 67 | 239 | 0.0 | 1.7 | 0.00 | 0.00 | 0.00 | 39 | 1006.4 |
| 20260504235603 | 67 | 239 | 0.0 | 1.7 | 0.00 | 0.00 | 0.00 | 39 | 1006.3 |
| 20260504235402 | 67 | 239 | 0.0 | 1.7 | 0.00 | 0.00 | 0.00 | 38 | 1006.3 |
| 20260504235158 | 67 | 239 | 0.0 | 1.7 | 0.00 | 0.00 | 0.00 | 38 | 1006.3 |
| 20260504234954 | 67 | 239 | 0.0 | 1.7 | 0.00 | 0.00 | 0.00 | 37 | 1006.3 |
| 20260504234754 | 68 | 239 | 0.0 | 1.7 | 0.00 | 0.00 | 0.00 | 37 | 1006.3 |
| 20260504234554 | 68 | 239 | 0.0 | 0.9 | 0.00 | 0.00 | 0.00 | 36 | 1006.2 |
| 20260504234349 | 68 | 239 | 0.0 | 0.9 | 0.00 | 0.00 | 0.00 | 36 | 1006.2 |
| 20260504234033 | 68 | 239 | 0.0 | 0.9 | 0.00 | 0.00 | 0.00 | 36 | 1006.2 |
| 20260504233833 | 68 | 239 | 0.0 | 1.7 | 0.00 | 0.00 | 0.00 | 36 | 1006.1 |
| 20260504233627 | 68 | 239 | 0.0 | 1.7 | 0.00 | 0.00 | 0.00 | 36 | 1006.1 |
| 20260504233423 | 69 | 239 | 0.0 | 1.7 | 0.00 | 0.00 | 0.00 | 35 | 1006.1 |
| 20260504233218 | 69 | 239 | 0.0 | 1.7 | 0.00 | 0.00 | 0.00 | 35 | 1006.1 |
| 20260504233008 | 69 | 239 | 0.0 | 1.7 | 0.00 | 0.00 | 0.00 | 34 | 1006.0 |
| 20260504232800 | 69 | 239 | 0.0 | 2.6 | 0.00 | 0.00 | 0.00 | 34 | 1006.1 |
| 20260504232550 | 69 | 239 | 0.9 | 2.6 | 0.00 | 0.00 | 0.00 | 34 | 1006.0 |
| 20260504232341 | 69 | 239 | 0.9 | 2.6 | 0.00 | 0.00 | 0.00 | 34 | 1006.0 |
| 20260504232138 | 69 | 239 | 0.9 | 2.6 | 0.00 | 0.00 | 0.00 | 34 | 1005.9 |
| 20260504231937 | 70 | 239 | 0.9 | 2.6 | 0.00 | 0.00 | 0.00 | 34 | 1005.9 |
| 20260504231736 | 70 | 239 | 0.9 | 3.5 | 0.00 | 0.00 | 0.00 | 34 | 1005.9 |
| 20260504231421 | 70 | 239 | 1.7 | 3.5 | 0.00 | 0.00 | 0.00 | 33 | 1005.8 |
| 20260504231055 | 70 | 239 | 1.7 | 3.5 | 0.00 | 0.00 | 0.00 | 33 | 1005.8 |
| 20260504230853 | 70 | 239 | 1.7 | 3.5 | 0.00 | 0.00 | 0.00 | 33 | 1005.7 |
| 20260504230645 | 70 | 219 | 1.7 | 4.3 | 0.00 | 0.00 | 0.00 | 32 | 1005.7 |
| 20260504230442 | 70 | 223 | 1.7 | 4.3 | 0.00 | 0.00 | 0.00 | 33 | 1005.7 |
| 20260504230241 | 70 | 232 | 0.9 | 4.3 | 0.00 | 0.00 | 0.00 | 32 | 1005.7 |
| 20260504230041 | 70 | 240 | 0.9 | 4.3 | 0.00 | 0.00 | 0.00 | 32 | 1005.7 |
| 20260504225830 | 70 | 238 | 1.7 | 4.3 | 0.00 | 0.00 | 0.00 | 32 | 1005.6 |
| 20260504225623 | 70 | 224 | 1.7 | 4.3 | 0.00 | 0.00 | 0.00 | 32 | 1005.6 |
| 20260504225413 | 71 | 224 | 1.7 | 4.3 | 0.00 | 0.00 | 0.00 | 32 | 1005.6 |
| 20260504225205 | 71 | 235 | 1.7 | 4.3 | 0.00 | 0.00 | 0.00 | 32 | 1005.6 |
| 20260504225002 | 71 | 244 | 1.7 | 4.3 | 0.00 | 0.00 | 0.00 | 32 | 1005.6 |
| 20260504224756 | 71 | 242 | 1.7 | 3.5 | 0.00 | 0.00 | 0.00 | 33 | 1005.6 |
| 20260504224548 | 71 | 230 | 1.7 | 5.2 | 0.00 | 0.00 | 0.00 | 32 | 1005.5 |
| 20260504224348 | 71 | 215 | 1.7 | 5.2 | 0.00 | 0.00 | 0.00 | 32 | 1005.5 |
| 20260504224145 | 71 | 239 | 1.7 | 5.2 | 0.00 | 0.00 | 0.00 | 31 | 1005.5 |
| 20260504223826 | 71 | 249 | 1.7 | 5.2 | 0.00 | 0.00 | 0.00 | 32 | 1005.4 |
| 20260504223616 | 71 | 249 | 1.7 | 6.1 | 0.00 | 0.00 | 0.00 | 31 | 1005.4 |
| 20260504223411 | 71 | 249 | 2.6 | 6.1 | 0.00 | 0.00 | 0.00 | 32 | 1005.4 |
| 20260504223201 | 71 | 234 | 2.6 | 6.1 | 0.00 | 0.00 | 0.00 | 32 | 1005.3 |
| 20260504222959 | 71 | 306 | 1.7 | 6.1 | 0.00 | 0.00 | 0.00 | 32 | 1005.4 |
| 20260504222755 | 71 | 242 | 1.7 | 6.1 | 0.00 | 0.00 | 0.00 | 31 | 1005.4 |
| 20260504222554 | 71 | 278 | 1.7 | 7.0 | 0.00 | 0.00 | 0.00 | 32 | 1005.4 |
| 20260504222353 | 71 | 250 | 1.7 | 7.0 | 0.00 | 0.00 | 0.00 | 32 | 1005.4 |
| 20260504222029 | 71 | 236 | 1.7 | 7.0 | 0.00 | 0.00 | 0.00 | 32 | 1005.4 |
| 20260504221825 | 71 | 250 | 1.7 | 7.0 | 0.00 | 0.00 | 0.00 | 32 | 1005.3 |
| 20260504221625 | 71 | 242 | 2.6 | 7.0 | 0.00 | 0.00 | 0.00 | 31 | 1005.3 |
| 20260504221310 | 71 | 249 | 2.6 | 7.0 | 0.00 | 0.00 | 0.00 | 31 | 1005.4 |
| 20260504221101 | 71 | 207 | 2.6 | 7.0 | 0.00 | 0.00 | 0.00 | 31 | 1005.4 |
| 20260504220859 | 71 | 225 | 2.6 | 7.0 | 0.00 | 0.00 | 0.00 | 31 | 1005.4 |
| 20260504220655 | 71 | 217 | 1.7 | 5.2 | 0.00 | 0.00 | 0.00 | 31 | 1005.4 |
| 20260504220333 | 71 | 246 | 1.7 | 5.2 | 0.00 | 0.00 | 0.00 | 31 | 1005.4 |
| 20260504220008 | 71 | 150 | 0.9 | 5.2 | 0.00 | 0.00 | 0.00 | 30 | 1005.4 |
| 20260504215805 | 71 | 268 | 0.9 | 5.2 | 0.00 | 0.00 | 0.00 | 31 | 1005.3 |
| 20260504215601 | 71 | 311 | 0.9 | 8.7 | 0.00 | 0.00 | 0.00 | 32 | 1005.4 |
| 20260504215355 | 71 | 281 | 1.7 | 8.7 | 0.00 | 0.00 | 0.00 | 31 | 1005.4 |
| 20260504215152 | 71 | 259 | 1.7 | 8.7 | 0.00 | 0.00 | 0.00 | 30 | 1005.3 |
| 20260504214953 | 71 | 271 | 1.7 | 8.7 | 0.00 | 0.00 | 0.00 | 30 | 1005.2 |
| 20260504214752 | 72 | 240 | 1.7 | 8.7 | 0.00 | 0.00 | 0.00 | 29 | 1005.3 |
| 20260504214554 | 72 | 225 | 2.6 | 8.7 | 0.00 | 0.00 | 0.00 | 32 | 1005.2 |
| 20260504214352 | 72 | 261 | 2.6 | 8.7 | 0.00 | 0.00 | 0.00 | 29 | 1005.2 |
| 20260504214147 | 72 | 253 | 2.6 | 8.7 | 0.00 | 0.00 | 0.00 | 30 | 1005.2 |
| 20260504213947 | 72 | 240 | 3.5 | 8.7 | 0.00 | 0.00 | 0.00 | 31 | 1005.2 |
| 20260504213747 | 72 | 26 | 3.5 | 8.7 | 0.00 | 0.00 | 0.00 | 30 | 1005.3 |
| 20260504213542 | 72 | 253 | 3.5 | 8.7 | 0.00 | 0.00 | 0.00 | 31 | 1005.3 |
| 20260504213334 | 72 | 211 | 3.5 | 8.7 | 0.00 | 0.00 | 0.00 | 30 | 1005.2 |
| 20260504213129 | 72 | 244 | 4.3 | 8.7 | 0.00 | 0.00 | 0.00 | 29 | 1005.4 |
| 20260504212929 | 73 | 254 | 3.5 | 9.6 | 0.00 | 0.00 | 0.00 | 29 | 1005.3 |
| 20260504212723 | 73 | 242 | 3.5 | 9.6 | 0.00 | 0.00 | 0.00 | 28 | 1005.1 |
| 20260504212524 | 74 | 242 | 2.6 | 9.6 | 0.00 | 0.00 | 0.00 | 28 | 1005.3 |
| 20260504212314 | 74 | 236 | 2.6 | 9.6 | 0.00 | 0.00 | 0.00 | 28 | 1005.3 |
| 20260504212109 | 74 | 196 | 2.6 | 9.6 | 0.00 | 0.00 | 0.00 | 29 | 1005.3 |
| 20260504211910 | 74 | 263 | 2.6 | 9.6 | 0.00 | 0.00 | 0.00 | 29 | 1005.2 |
| 20260504211548 | 74 | 203 | 2.6 | 9.6 | 0.00 | 0.00 | 0.00 | 28 | 1005.4 |
| 20260504211349 | 74 | 229 | 2.6 | 9.6 | 0.00 | 0.00 | 0.00 | 29 | 1005.3 |
| 20260504211148 | 74 | 242 | 3.5 | 9.6 | 0.00 | 0.00 | 0.00 | 28 | 1005.4 |
| 20260504210948 | 74 | 190 | 3.5 | 7.0 | 0.00 | 0.00 | 0.00 | 29 | 1005.4 |
| 20260504210746 | 74 | 259 | 3.5 | 7.0 | 0.00 | 0.00 | 0.00 | 29 | 1005.4 |
| 20260504210538 | 74 | 251 | 2.6 | 8.7 | 0.00 | 0.00 | 0.00 | 29 | 1005.3 |
| 20260504210336 | 74 | 227 | 2.6 | 8.7 | 0.00 | 0.00 | 0.00 | 30 | 1005.3 |
| 20260504210136 | 74 | 217 | 2.6 | 8.7 | 0.00 | 0.00 | 0.00 | 29 | 1005.3 |
| 20260504205932 | 74 | 241 | 2.6 | 8.7 | 0.00 | 0.01 | 0.00 | 30 | 1005.3 |
| 20260504205725 | 73 | 244 | 3.5 | 8.7 | 0.00 | 0.01 | 0.00 | 28 | 1005.3 |
| 20260504205408 | 73 | 293 | 3.5 | 8.7 | 0.00 | 0.01 | 0.00 | 29 | 1005.2 |
| 20260504205209 | 73 | 261 | 3.5 | 8.7 | 0.00 | 0.01 | 0.00 | 29 | 1005.3 |
| 20260504205006 | 73 | 250 | 3.5 | 8.7 | 0.00 | 0.01 | 0.00 | 29 | 1005.3 |
| 20260504204757 | 73 | 251 | 2.6 | 8.7 | 0.00 | 0.01 | 0.00 | 30 | 1005.3 |
| 20260504204558 | 73 | 229 | 2.6 | 7.0 | 0.00 | 0.01 | 0.00 | 29 | 1005.3 |
| 20260504204243 | 73 | 231 | 3.5 | 7.0 | 0.00 | 0.01 | 0.00 | 29 | 1005.3 |
| 20260504204041 | 74 | 221 | 3.5 | 7.0 | 0.00 | 0.01 | 0.00 | 30 | 1005.3 |
| 20260504203833 | 74 | 248 | 2.6 | 7.0 | 0.00 | 0.01 | 0.00 | 27 | 1005.3 |
| 20260504203633 | 74 | 247 | 2.6 | 6.1 | 0.00 | 0.01 | 0.00 | 28 | 1005.3 |
| 20260504203428 | 74 | 229 | 1.7 | 6.1 | 0.00 | 0.01 | 0.00 | 29 | 1005.3 |
| 20260504203228 | 74 | 228 | 1.7 | 6.1 | 0.00 | 0.01 | 0.00 | 29 | 1005.2 |
| 20260504203025 | 74 | 239 | 1.7 | 12.2 | 0.00 | 0.01 | 0.00 | 29 | 1005.3 |
| 20260504202818 | 73 | 252 | 1.7 | 12.2 | 0.00 | 0.01 | 0.00 | 29 | 1005.3 |
| 20260504202610 | 73 | 235 | 2.6 | 12.2 | 0.00 | 0.01 | 0.00 | 29 | 1005.3 |
| 20260504202250 | 73 | 248 | 3.5 | 12.2 | 0.00 | 0.01 | 0.00 | 30 | 1005.3 |
| 20260504202049 | 73 | 225 | 3.5 | 12.2 | 0.00 | 0.01 | 0.00 | 28 | 1005.3 |
| 20260504201724 | 73 | 229 | 3.5 | 12.2 | 0.00 | 0.01 | 0.00 | 29 | 1005.3 |
| 20260504201519 | 74 | 218 | 3.5 | 12.2 | 0.00 | 0.01 | 0.00 | 29 | 1005.4 |
| 20260504201315 | 74 | 91 | 3.5 | 12.2 | 0.00 | 0.01 | 0.00 | 28 | 1005.4 |
| 20260504201109 | 75 | 238 | 2.6 | 7.8 | 0.00 | 0.01 | 0.00 | 29 | 1005.3 |
| 20260504200858 | 74 | 217 | 3.5 | 9.6 | 0.00 | 0.01 | 0.00 | 28 | 1005.3 |
| 20260504200651 | 74 | 246 | 3.5 | 9.6 | 0.00 | 0.01 | 0.00 | 29 | 1005.3 |
| 20260504200445 | 73 | 217 | 3.5 | 9.6 | 0.00 | 0.01 | 0.00 | 27 | 1005.3 |
| 20260504200245 | 74 | 236 | 4.3 | 9.6 | 0.00 | 0.01 | 0.00 | 27 | 1005.4 |
| 20260504200043 | 74 | 312 | 4.3 | 9.6 | 0.00 | 0.01 | 0.00 | 27 | 1005.4 |
| 20260504195834 | 74 | 227 | 3.5 | 10.4 | 0.00 | 0.01 | 0.00 | 29 | 1005.3 |
| 20260504195632 | 74 | 232 | 3.5 | 10.4 | 0.00 | 0.01 | 0.00 | 28 | 1005.4 |
| 20260504195427 | 74 | 236 | 3.5 | 10.4 | 0.00 | 0.01 | 0.00 | 28 | 1005.4 |
| 20260504195218 | 74 | 237 | 3.5 | 10.4 | 0.00 | 0.01 | 0.00 | 27 | 1005.3 |
| 20260504195010 | 74 | 221 | 4.3 | 10.4 | 0.00 | 0.01 | 0.00 | 28 | 1005.4 |
| 20260504194801 | 74 | 237 | 4.3 | 10.4 | 0.00 | 0.01 | 0.00 | 28 | 1005.4 |
| 20260504194601 | 74 | 249 | 4.3 | 10.4 | 0.00 | 0.01 | 0.00 | 27 | 1005.3 |
| 20260504194356 | 74 | 252 | 4.3 | 10.4 | 0.00 | 0.01 | 0.00 | 28 | 1005.4 |
| 20260504194154 | 74 | 227 | 4.3 | 10.4 | 0.00 | 0.01 | 0.00 | 29 | 1005.4 |
| 20260504193951 | 74 | 259 | 4.3 | 10.4 | 0.00 | 0.01 | 0.00 | 27 | 1005.4 |
| 20260504193749 | 74 | 222 | 4.3 | 8.7 | 0.00 | 0.01 | 0.00 | 27 | 1005.4 |
| 20260504193426 | 74 | 270 | 3.5 | 8.7 | 0.00 | 0.01 | 0.00 | 28 | 1005.4 |
| 20260504193222 | 74 | 241 | 4.3 | 8.7 | 0.00 | 0.01 | 0.00 | 29 | 1005.3 |
| 20260504192904 | 73 | 240 | 4.3 | 9.6 | 0.00 | 0.01 | 0.00 | 29 | 1005.4 |
| 20260504192656 | 73 | 243 | 5.2 | 9.6 | 0.00 | 0.01 | 0.00 | 30 | 1005.4 |
| 20260504192453 | 72 | 251 | 5.2 | 9.6 | 0.00 | 0.01 | 0.00 | 28 | 1005.3 |
| 20260504192249 | 73 | 253 | 4.3 | 9.6 | 0.00 | 0.01 | 0.00 | 29 | 1005.3 |
| 20260504192050 | 73 | 203 | 4.3 | 9.6 | 0.00 | 0.01 | 0.00 | 28 | 1005.4 |
| 20260504191724 | 72 | 223 | 3.5 | 9.6 | 0.00 | 0.01 | 0.00 | 28 | 1005.5 |
| 20260504191402 | 72 | 250 | 4.3 | 9.6 | 0.00 | 0.01 | 0.00 | 29 | 1005.4 |
| 20260504191155 | 73 | 225 | 3.5 | 9.6 | 0.00 | 0.01 | 0.00 | 30 | 1005.5 |
| 20260504190946 | 73 | 235 | 3.5 | 10.4 | 0.00 | 0.01 | 0.00 | 29 | 1005.4 |
| 20260504190747 | 72 | 229 | 3.5 | 10.4 | 0.00 | 0.01 | 0.00 | 30 | 1005.6 |
| 20260504190540 | 73 | 183 | 3.5 | 10.4 | 0.00 | 0.01 | 0.00 | 29 | 1005.6 |
| 20260504190336 | 73 | 231 | 2.6 | 10.4 | 0.00 | 0.01 | 0.00 | 28 | 1005.7 |
| 20260504190018 | 72 | 266 | 3.5 | 10.4 | 0.00 | 0.01 | 0.00 | 32 | 1005.7 |
| 20260504185657 | 72 | 248 | 3.5 | 10.4 | 0.00 | 0.01 | 0.00 | 29 | 1005.7 |
| 20260504185457 | 71 | 225 | 4.3 | 10.4 | 0.00 | 0.01 | 0.00 | 28 | 1005.7 |
| 20260504185252 | 72 | 228 | 4.3 | 10.4 | 0.00 | 0.01 | 0.00 | 30 | 1005.8 |
| 20260504185048 | 72 | 229 | 4.3 | 10.4 | 0.00 | 0.01 | 0.00 | 28 | 1005.7 |
| 20260504184842 | 72 | 214 | 5.2 | 10.4 | 0.00 | 0.01 | 0.00 | 28 | 1005.7 |
| 20260504184638 | 72 | 241 | 5.2 | 10.4 | 0.00 | 0.01 | 0.00 | 30 | 1005.6 |
| 20260504184439 | 70 | 208 | 5.2 | 10.4 | 0.00 | 0.01 | 0.00 | 31 | 1005.7 |
| 20260504183958 | 71 | 244 | 4.3 | 7.0 | 0.00 | 0.01 | 0.00 | 29 | 1005.8 |
| 20260504181848 | 73 | 226 | 3.5 | 13.9 | 0.00 | 0.00 | 0.00 | 27 | 1006.0 |
| 20260504181646 | 73 | 203 | 3.5 | 13.0 | 0.00 | 0.00 | 0.00 | 29 | 1005.9 |
| 20260504181440 | 73 | 217 | 3.5 | 13.0 | 0.00 | 0.00 | 0.00 | 30 | 1006.0 |
| 20260504181235 | 73 | 187 | 4.3 | 13.0 | 0.00 | 0.00 | 0.00 | 32 | 1005.9 |
| 20260504181029 | 72 | 272 | 5.2 | 13.0 | 0.00 | 0.00 | 0.00 | 29 | 1006.0 |
| 20260504180824 | 72 | 254 | 5.2 | 13.0 | 0.00 | 0.00 | 0.00 | 29 | 1006.0 |
| 20260504180619 | 72 | 251 | 5.2 | 13.9 | 0.00 | 0.00 | 0.00 | 30 | 1005.9 |
| 20260504180411 | 72 | 232 | 5.2 | 13.9 | 0.00 | 0.00 | 0.00 | 28 | 1005.9 |
| 20260504180204 | 72 | 242 | 5.2 | 13.9 | 0.00 | 0.00 | 0.00 | 29 | 1005.8 |
| 20260504180000 | 72 | 213 | 5.2 | 13.9 | 0.00 | 0.00 | 0.00 | 29 | 1005.9 |
| 20260504175758 | 72 | 236 | 5.2 | 13.9 | 0.00 | 0.00 | 0.00 | 30 | 1006.0 |
| 20260504175600 | 72 | 213 | 5.2 | 13.9 | 0.00 | 0.00 | 0.00 | 28 | 1006.0 |
| 20260504175357 | 72 | 234 | 5.2 | 13.9 | 0.00 | 0.00 | 0.00 | 28 | 1006.1 |
| 20260504175150 | 72 | 244 | 5.2 | 13.9 | 0.00 | 0.00 | 0.00 | 30 | 1006.0 |
| 20260504174943 | 72 | 224 | 5.2 | 13.9 | 0.00 | 0.00 | 0.00 | 29 | 1006.0 |
| 20260504174739 | 72 | 247 | 5.2 | 13.9 | 0.00 | 0.00 | 0.00 | 29 | 1006.1 |
| 20260504174540 | 72 | 233 | 4.3 | 12.2 | 0.00 | 0.00 | 0.00 | 28 | 1005.9 |
| 20260504174330 | 72 | 224 | 4.3 | 12.2 | 0.00 | 0.00 | 0.00 | 29 | 1006.2 |
| 20260504174016 | 72 | 241 | 4.3 | 12.2 | 0.00 | 0.00 | 0.00 | 29 | 1006.2 |
| 20260504173813 | 72 | 186 | 5.2 | 12.2 | 0.00 | 0.00 | 0.00 | 29 | 1006.1 |
| 20260504173449 | 72 | 251 | 5.2 | 12.2 | 0.00 | 0.00 | 0.00 | 31 | 1006.2 |
| 20260504173239 | 71 | 219 | 5.2 | 12.2 | 0.00 | 0.00 | 0.00 | 30 | 1006.0 |
| 20260504173032 | 71 | 244 | 5.2 | 12.2 | 0.00 | 0.00 | 0.00 | 32 | 1006.2 |
| 20260504172823 | 71 | 281 | 5.2 | 14.8 | 0.00 | 0.00 | 0.00 | 30 | 1006.1 |
| 20260504172501 | 71 | 183 | 5.2 | 14.8 | 0.00 | 0.00 | 0.00 | 30 | 1006.2 |
| 20260504172253 | 71 | 245 | 6.1 | 14.8 | 0.00 | 0.00 | 0.00 | 31 | 1006.2 |
| 20260504172047 | 71 | 229 | 6.1 | 14.8 | 0.00 | 0.00 | 0.00 | 30 | 1006.2 |
| 20260504171843 | 71 | 198 | 6.1 | 14.8 | 0.00 | 0.00 | 0.00 | 30 | 1006.2 |
| 20260504171636 | 70 | 224 | 6.1 | 14.8 | 0.00 | 0.00 | 0.00 | 32 | 1006.2 |
| 20260504171428 | 70 | 226 | 6.1 | 14.8 | 0.00 | 0.00 | 0.00 | 30 | 1006.2 |
| 20260504171219 | 70 | 234 | 6.1 | 14.8 | 0.00 | 0.00 | 0.00 | 31 | 1006.3 |
| 20260504171014 | 70 | 226 | 6.1 | 14.8 | 0.00 | 0.00 | 0.00 | 31 | 1006.2 |
| 20260504170807 | 70 | 251 | 6.1 | 14.8 | 0.00 | 0.00 | 0.00 | 32 | 1006.3 |
| 20260504170557 | 70 | 235 | 5.2 | 14.8 | 0.00 | 0.00 | 0.00 | 31 | 1006.4 |
| 20260504170353 | 70 | 246 | 5.2 | 14.8 | 0.00 | 0.00 | 0.00 | 32 | 1006.4 |
| 20260504160348 | 69 | 255 | 4.3 | 14.8 | 0.00 | 0.00 | 0.00 | 31 | 1006.5 |
| 20260504160145 | 69 | 217 | 4.3 | 13.0 | 0.00 | 0.00 | 0.00 | 32 | 1006.7 |
| 20260504151113 | 67 | 227 | 3.5 | 10.4 | 0.00 | 0.00 | 0.00 | 39 | 1007.4 |
| 20260504150755 | 66 | 227 | 4.3 | 10.4 | 0.00 | 0.00 | 0.00 | 37 | 1007.3 |
| 20260504150545 | 66 | 230 | 4.3 | 10.4 | 0.00 | 0.00 | 0.00 | 37 | 1007.3 |
| 20260504150335 | 66 | 224 | 3.5 | 10.4 | 0.00 | 0.00 | 0.00 | 37 | 1007.4 |
| 20260504141222 | 63 | 213 | 2.6 | 7.8 | 0.00 | 0.00 | 0.00 | 42 | 1008.2 |
| 20260504141014 | 63 | 254 | 2.6 | 8.7 | 0.00 | 0.00 | 0.00 | 42 | 1008.2 |
| 20260504140813 | 63 | 252 | 2.6 | 8.7 | 0.00 | 0.02 | 0.00 | 41 | 1008.2 |
| 20260504140614 | 63 | 248 | 3.5 | 8.7 | 0.00 | 0.02 | 0.00 | 41 | 1008.2 |
| 20260504140258 | 63 | 201 | 2.6 | 8.7 | 0.00 | 0.02 | 0.00 | 41 | 1008.3 |
| 20260504130720 | 58 | 240 | 1.7 | 7.8 | 0.00 | 0.05 | 0.00 | 48 | 1009.0 |
| 20260504130515 | 58 | 225 | 2.6 | 7.8 | 0.00 | 0.05 | 0.00 | 49 | 1009.0 |
| 20260504130200 | 58 | 253 | 2.6 | 7.8 | 0.00 | 0.05 | 0.00 | 47 | 1009.0 |
| 20260504120147 | 51 | 232 | 0.9 | 4.3 | 0.00 | 0.05 | 0.00 | 57 | 1009.7 |
| 20260504110533 | 48 | 229 | 1.7 | 4.3 | 0.00 | 0.05 | 0.00 | 60 | 1009.8 |
| 20260504110323 | 48 | 215 | 1.7 | 4.3 | 0.00 | 0.05 | 0.00 | 60 | 1009.8 |
| 20260504110118 | 48 | 224 | 1.7 | 4.3 | 0.00 | 0.05 | 0.00 | 60 | 1009.8 |
| 20260504100604 | 46 | 222 | 1.7 | 2.6 | 0.00 | 0.05 | 0.00 | 61 | 1009.9 |
| 20260504100405 | 46 | 222 | 1.7 | 2.6 | 0.00 | 0.05 | 0.00 | 61 | 1009.9 |
| 20260504081802 | 45 | 249 | 0.9 | 2.6 | 0.00 | 0.05 | 0.00 | 60 | 1009.7 |
| 20260504081555 | 45 | 249 | 0.9 | 2.6 | 0.00 | 0.05 | 0.00 | 60 | 1009.6 |
| 20260504081352 | 45 | 249 | 0.9 | 2.6 | 0.00 | 0.05 | 0.00 | 61 | 1009.7 |
| 20260504081152 | 45 | 249 | 0.9 | 2.6 | 0.00 | 0.05 | 0.00 | 61 | 1009.7 |
| 20260504080949 | 45 | 229 | 0.9 | 1.7 | 0.00 | 0.05 | 0.00 | 60 | 1009.7 |
| 20260504080747 | 45 | 234 | 0.9 | 1.7 | 0.00 | 0.05 | 0.00 | 61 | 1009.7 |
| 20260504080544 | 45 | 234 | 0.9 | 1.7 | 0.00 | 0.05 | 0.00 | 60 | 1009.6 |
| 20260504080343 | 45 | 234 | 0.9 | 1.7 | 0.00 | 0.05 | 0.00 | 60 | 1009.6 |
| 20260504080134 | 45 | 234 | 0.9 | 1.7 | 0.00 | 0.05 | 0.00 | 61 | 1009.6 |
| 20260504070335 | 43 | 215 | 0.9 | 1.7 | 0.00 | 0.05 | 0.00 | 62 | 1009.5 |
| 20260504070129 | 43 | 215 | 0.9 | 1.7 | 0.00 | 0.05 | 0.00 | 62 | 1009.4 |
| 20260504060133 | 42 | 299 | 0.9 | 1.7 | 0.00 | 0.05 | 0.00 | 64 | 1009.6 |
| 20260504050729 | 41 | 299 | 0.9 | 1.7 | 0.00 | 0.06 | 0.00 | 65 | 1009.4 |
| 20260504050523 | 41 | 299 | 0.9 | 1.7 | 0.00 | 0.06 | 0.00 | 65 | 1009.5 |
| 20260504050322 | 41 | 299 | 0.9 | 1.7 | 0.00 | 0.06 | 0.00 | 65 | 1009.5 |
| 20260504050113 | 41 | 299 | 0.9 | 1.7 | 0.00 | 0.06 | 0.00 | 65 | 1009.5 |
| 20260504045910 | 41 | 299 | 0.9 | 1.7 | 0.00 | 0.06 | 0.00 | 65 | 1009.5 |
| 20260504045703 | 41 | 299 | 0.9 | 1.7 | 0.00 | 0.06 | 0.00 | 66 | 1009.5 |
| 20260504045459 | 41 | 299 | 0.9 | 1.7 | 0.00 | 0.06 | 0.00 | 65 | 1009.5 |
| 20260504045256 | 41 | 299 | 0.9 | 1.7 | 0.00 | 0.06 | 0.00 | 66 | 1009.4 |
| 20260504045046 | 41 | 299 | 0.9 | 1.7 | 0.00 | 0.06 | 0.00 | 66 | 1009.4 |
| 20260504044838 | 41 | 299 | 0.9 | 1.7 | 0.00 | 0.06 | 0.00 | 66 | 1009.4 |
| 20260504044516 | 40 | 299 | 0.0 | 1.7 | 0.00 | 0.06 | 0.00 | 66 | 1009.4 |
| 20260504044310 | 40 | 299 | 0.0 | 1.7 | 0.00 | 0.06 | 0.00 | 67 | 1009.4 |
| 20260504044111 | 40 | 299 | 0.0 | 1.7 | 0.00 | 0.06 | 0.00 | 67 | 1009.4 |
| 20260504043904 | 40 | 299 | 0.0 | 0.0 | 0.00 | 0.06 | 0.00 | 67 | 1009.4 |
| 20260504043702 | 40 | 299 | 0.0 | 0.0 | 0.00 | 0.06 | 0.00 | 68 | 1009.4 |
| 20260504043348 | 40 | 299 | 0.0 | 0.0 | 0.00 | 0.06 | 0.00 | 67 | 1009.4 |
| 20260504043143 | 40 | 299 | 0.0 | 0.0 | 0.00 | 0.06 | 0.00 | 67 | 1009.4 |
| 20260504042936 | 40 | 299 | 0.0 | 0.0 | 0.00 | 0.06 | 0.00 | 67 | 1009.4 |
| 20260504042622 | 41 | 299 | 0.0 | 0.0 | 0.00 | 0.06 | 0.00 | 66 | 1009.4 |
| 20260504042420 | 41 | 299 | 0.0 | 0.0 | 0.00 | 0.06 | 0.00 | 66 | 1009.4 |
| 20260504042220 | 41 | 299 | 0.0 | 0.0 | 0.00 | 0.06 | 0.00 | 67 | 1009.4 |
| 20260504042019 | 41 | 299 | 0.0 | 0.0 | 0.00 | 0.06 | 0.00 | 67 | 1009.4 |
| 20260504041810 | 41 | 299 | 0.0 | 0.0 | 0.00 | 0.06 | 0.00 | 67 | 1009.4 |
| 20260504041611 | 41 | 299 | 0.0 | 0.0 | 0.00 | 0.06 | 0.00 | 66 | 1009.4 |
| 20260504041407 | 41 | 299 | 0.0 | 0.0 | 0.00 | 0.06 | 0.00 | 65 | 1009.3 |
| 20260504041202 | 41 | 299 | 0.0 | 0.0 | 0.00 | 0.06 | 0.00 | 65 | 1009.3 |
| 20260504040954 | 41 | 299 | 0.0 | 0.0 | 0.00 | 0.06 | 0.00 | 65 | 1009.3 |
| 20260504040745 | 41 | 299 | 0.0 | 0.0 | 0.00 | 0.06 | 0.00 | 65 | 1009.3 |
| 20260504040542 | 41 | 299 | 0.0 | 0.0 | 0.00 | 0.06 | 0.00 | 65 | 1009.3 |
| 20260504040340 | 41 | 299 | 0.0 | 0.9 | 0.00 | 0.06 | 0.00 | 65 | 1009.3 |
| 20260504040134 | 41 | 299 | 0.0 | 0.9 | 0.00 | 0.06 | 0.00 | 66 | 1009.3 |
| 20260504035816 | 41 | 299 | 0.0 | 0.9 | 0.00 | 0.06 | 0.06 | 66 | 1009.2 |
| 20260504035610 | 41 | 299 | 0.0 | 0.9 | 0.00 | 0.06 | 0.06 | 66 | 1009.2 |
| 20260504035407 | 41 | 299 | 0.0 | 1.7 | 0.00 | 0.06 | 0.06 | 66 | 1009.2 |
| 20260504035200 | 41 | 299 | 0.0 | 1.7 | 0.00 | 0.06 | 0.06 | 66 | 1009.2 |
| 20260504034957 | 41 | 299 | 0.0 | 1.7 | 0.00 | 0.06 | 0.06 | 66 | 1009.2 |
| 20260504034749 | 41 | 299 | 0.0 | 1.7 | 0.00 | 0.06 | 0.06 | 67 | 1009.2 |
| 20260504034547 | 41 | 299 | 0.9 | 1.7 | 0.00 | 0.06 | 0.06 | 67 | 1009.1 |
| 20260504034337 | 41 | 299 | 0.9 | 1.7 | 0.00 | 0.06 | 0.06 | 67 | 1009.1 |
| 20260504034131 | 41 | 299 | 0.9 | 1.7 | 0.00 | 0.06 | 0.06 | 67 | 1009.1 |
| 20260504033929 | 41 | 299 | 0.9 | 1.7 | 0.00 | 0.06 | 0.06 | 67 | 1009.1 |
| 20260504033729 | 41 | 299 | 0.9 | 1.7 | 0.00 | 0.06 | 0.06 | 67 | 1009.2 |
| 20260504033526 | 41 | 299 | 0.9 | 0.9 | 0.00 | 0.06 | 0.06 | 67 | 1009.2 |
| 20260504033319 | 41 | 299 | 0.9 | 0.9 | 0.00 | 0.06 | 0.06 | 67 | 1009.2 |
| 20260504033110 | 41 | 299 | 0.9 | 1.7 | 0.00 | 0.06 | 0.06 | 67 | 1009.2 |
| 20260504032910 | 41 | 299 | 0.9 | 1.7 | 0.00 | 0.06 | 0.06 | 66 | 1009.2 |
| 20260504032706 | 41 | 299 | 0.9 | 1.7 | 0.00 | 0.06 | 0.06 | 67 | 1009.2 |
| 20260504032502 | 41 | 299 | 0.9 | 1.7 | 0.00 | 0.06 | 0.06 | 65 | 1009.2 |
| 20260504032143 | 42 | 299 | 0.9 | 1.7 | 0.00 | 0.06 | 0.06 | 65 | 1009.2 |
| 20260504031937 | 42 | 299 | 0.9 | 1.7 | 0.00 | 0.06 | 0.06 | 65 | 1009.2 |
| 20260504031737 | 42 | 299 | 0.0 | 1.7 | 0.00 | 0.06 | 0.06 | 65 | 1009.2 |
| 20260504031536 | 42 | 299 | 0.0 | 1.7 | 0.00 | 0.06 | 0.06 | 65 | 1009.2 |
| 20260504031334 | 42 | 299 | 0.0 | 1.7 | 0.00 | 0.06 | 0.06 | 65 | 1009.1 |
| 20260504031134 | 42 | 299 | 0.0 | 0.0 | 0.00 | 0.06 | 0.06 | 64 | 1009.1 |
| 20260504030816 | 42 | 299 | 0.0 | 0.0 | 0.00 | 0.06 | 0.06 | 65 | 1009.1 |
| 20260504030610 | 42 | 299 | 0.0 | 0.0 | 0.00 | 0.06 | 0.06 | 65 | 1009.1 |
| 20260504030407 | 42 | 299 | 0.0 | 0.0 | 0.00 | 0.06 | 0.06 | 65 | 1009.1 |
| 20260504030157 | 42 | 299 | 0.0 | 0.0 | 0.00 | 0.06 | 0.06 | 65 | 1009.1 |
| 20260504025957 | 41 | 299 | 0.0 | 0.0 | 0.00 | 0.06 | 0.06 | 64 | 1009.1 |
| 20260504025758 | 41 | 299 | 0.0 | 0.0 | 0.00 | 0.06 | 0.06 | 65 | 1009.2 |
| 20260504025548 | 41 | 299 | 0.0 | 0.0 | 0.00 | 0.06 | 0.06 | 65 | 1009.1 |
| 20260504025340 | 41 | 299 | 0.0 | 0.0 | 0.00 | 0.06 | 0.06 | 65 | 1009.1 |
| 20260504025140 | 42 | 299 | 0.0 | 0.0 | 0.00 | 0.06 | 0.06 | 65 | 1009.1 |
| 20260504024932 | 42 | 299 | 0.0 | 0.0 | 0.00 | 0.06 | 0.06 | 65 | 1009.1 |
| 20260504024721 | 42 | 299 | 0.0 | 0.0 | 0.00 | 0.06 | 0.06 | 64 | 1009.0 |
| 20260504024518 | 42 | 299 | 0.0 | 0.0 | 0.00 | 0.06 | 0.06 | 64 | 1009.1 |
| 20260504024202 | 42 | 299 | 0.0 | 0.0 | 0.00 | 0.06 | 0.06 | 63 | 1009.1 |
| 20260504024001 | 42 | 299 | 0.0 | 0.0 | 0.00 | 0.06 | 0.06 | 63 | 1009.1 |
| 20260504023758 | 42 | 299 | 0.0 | 0.0 | 0.00 | 0.06 | 0.06 | 62 | 1009.1 |
| 20260504023441 | 42 | 299 | 0.0 | 0.0 | 0.00 | 0.06 | 0.06 | 62 | 1009.1 |
| 20260504023235 | 43 | 299 | 0.0 | 0.0 | 0.00 | 0.06 | 0.06 | 61 | 1009.1 |
| 20260504022918 | 43 | 299 | 0.0 | 0.0 | 0.00 | 0.06 | 0.06 | 61 | 1009.0 |
| 20260504022557 | 43 | 299 | 0.0 | 0.0 | 0.00 | 0.06 | 0.06 | 61 | 1009.0 |
| 20260504022357 | 43 | 299 | 0.0 | 0.0 | 0.00 | 0.06 | 0.06 | 61 | 1009.0 |